Retour au catalogue

STARLINK-30204

ActifCommunicationsVLEO
NORAD 57472·PAYLOAD·🇺🇸 United States

Lancé Jul 28, 2023 depuis Cape Canaveral Space Force Station

Loading…

Prochains Passages (prochaines 24 heures)

TLE

FraisSource: CelesTrak SupGP

Époque: Sep 15, 2026, 02:20 UTC

1 57472C 23107R   26258.09770833  .00039396  00000+0  14265-2 0  2585
2 57472  43.0028 346.4205 0001392 270.3773 127.0924 15.27569022    17

Suivez STARLINK-30204 en temps réel avec AllMySat

Download on the App Store